Wind_Speed
7 5 5 3 4 6 6 3 4 2 2 2 3 2 5 6 5 6 9 8 7 6 8 6 6 10 9 10 6 10 19 18 19 20 21 22 22 20 20 21 20 20 22 21 20 22 23 23 25 29 33 37 39 39 36 34 34 35 38 40 41 41 40 39 37 33 28 25 25 27 26 26 25 24 24 25 25 25 24 24 23 23 24 26 30 32
7 6 3 4 6 5 5 1 3 3 3 4 3 2 5 6 7 9 9 8 6 5 11 8 6 9 6 9 7 15 17 13 18 20 20 22 21 20 21 22 21 20 21 22 21 22 24 27 30 33 36 39 39 37 33 33 36 38 40 41 42 42 41 39 36 33 30 28 29 31 31 29 27 26 27 29 30 29 28 27 25 24 25 26 30 33
6 4 5 7 3 1 4 4 6 6 4 4 3 2 4 5 8 9 6 3 4 5 11 9 6 5 7 9 9 14 15 15 22 23 21 22 21 21 21 22 22 21 22 22 23 25 27 30 32 35 37 38 35 32 32 35 37 39 40 40 41 39 37 34 32 30 30 31 32 33 33 32 31 30 28 28 28 27 27 27 26 25 25 25 27 32
3 2 4 3 5 6 5 6 6 6 5 3 2 2 4 5 5 6 6 4 3 4 8 8 5 2 6 8 9 14 19 22 24 25 25 24 22 20 20 22 22 21 22 23 25 28 30 32 33 35 37 35 31 32 36 38 39 40 40 39 38 36 34 31 30 30 32 34 34 33 33 33 33 33 32 31 28 25 24 25 25 26 26 25 26 29
1 5 3 4 8 8 4 5 5 4 5 4 3 2 5 7 5 7 10 10 7 4 4 6 5 2 4 6 7 10 16 18 19 23 23 21 21 20 21 25 23 21 22 24 26 30 31 33 34 36 35 31 31 37 40 40 40 39 38 37 36 33 30 29 30 31 33 33 32 31 31 31 31 32 33 32 29 26 26 26 27 27 28 28 28 28
1 4 3 4 7 7 4 3 1 2 4 5 3 3 5 9 9 11 12 9 6 4 3 4 4 2 2 7 5 4 9 10 12 17 17 17 21 22 24 25 23 22 22 24 28 31 32 33 34 35 32 31 36 40 41 40 38 36 35 33 30 27 26 29 32 33 31 29 27 27 28 27 26 27 29 29 28 29 29 29 28 28 28 29 29 30
1 4 4 5 4 6 5 3 2 2 2 4 3 3 5 8 10 13 11 5 2 4 3 3 2 3 1 4 4 4 6 5 8 12 13 16 19 21 23 23 22 23 24 26 29 31 32 33 33 33 33 35 40 41 41 39 35 35 33 27 24 26 30 34 35 33 30 26 25 26 25 23 23 25 27 28 30 31 31 30 28 27 28 27 28 29
3 6 6 5 5 5 5 4 3 2 0 5 5 2 6 9 11 12 8 2 3 3 3 3 1 4 2 2 4 5 6 5 6 8 10 16 18 20 22 22 22 24 25 27 31 31 31 31 32 34 36 39 41 41 40 37 35 36 31 27 29 33 36 36 34 31 27 26 26 27 27 26 26 27 29 30 31 32 31 28 26 25 27 26 26 26
1 4 4 2 5 4 2 4 4 2 1 7 6 3 6 9 9 10 6 3 3 1 2 5 3 2 3 2 3 5 5 4 4 5 8 14 18 19 21 21 22 24 25 28 31 31 31 32 34 37 38 40 39 39 38 37 37 37 33 33 36 37 38 37 32 26 25 27 27 28 29 31 33 32 32 32 33 32 29 27 26 26 26 26 26 26
3 3 3 2 3 1 4 6 4 3 3 8 6 5 6 6 5 6 4 2 2 0 3 5 2 1 3 1 4 3 3 3 2 4 7 13 17 19 21 22 25 27 28 31 32 31 32 34 36 38 39 39 38 38 38 38 39 37 36 38 38 39 39 39 34 26 25 28 28 29 30 32 35 35 34 33 32 30 28 27 28 28 28 27 25 26
9 5 4 2 1 3 5 6 4 5 5 7 4 6 8 5 3 2 1 1 2 2 5 4 1 2 3 2 3 1 3 3 3 4 6 12 18 21 23 24 26 28 30 32 32 33 34 36 39 40 40 40 40 39 39 39 39 38 38 38 38 38 38 41 38 29 25 30 31 32 32 32 34 35 34 32 29 28 28 29 29 29 30 29 27 27
10 1 2 3 2 1 3 5 3 3 4 5 3 5 8 6 2 2 3 4 3 5 5 3 2 4 4 3 3 4 5 5 4 4 5 9 15 19 20 22 24 27 29 32 35 38 40 41 43 42 41 40 39 39 42 43 42 41 41 40 39 39 39 40 38 30 28 33 34 34 34 33 34 34 33 31 29 28 30 31 31 30 31 31 30 29
6 1 3 5 2 4 5 4 5 4 5 6 3 5 7 6 5 4 4 3 3 6 5 1 4 4 4 2 5 8 5 5 6 6 6 8 12 17 19 22 25 28 31 36 40 43 43 42 43 41 38 37 38 43 47 46 44 43 42 41 40 41 40 37 35 32 34 37 38 38 38 36 34 34 33 31 29 29 30 31 32 31 30 31 31 31
5 4 6 4 2 6 7 4 6 5 4 5 2 3 3 3 5 7 4 3 6 7 4 2 4 3 3 1 4 7 6 8 9 9 9 10 13 17 19 22 26 31 36 39 41 42 39 40 41 37 33 36 41 46 46 43 42 42 41 41 40 40 39 37 37 40 41 42 42 41 41 39 36 34 32 30 29 30 30 32 33 33 30 31 33 34
4 5 4 2 3 7 6 2 4 4 4 3 2 3 1 1 3 6 3 3 9 10 6 4 3 4 4 2 6 7 8 10 10 8 8 9 13 17 19 23 29 34 37 38 39 38 37 40 39 31 31 39 45 47 44 42 42 42 42 42 41 41 42 42 43 45 45 44 42 39 41 40 35 31 29 28 28 30 32 33 34 35 33 33 34 35
2 6 5 3 4 4 5 4 2 2 4 3 1 2 2 1 3 4 5 5 7 9 5 2 3 3 2 4 7 8 7 7 8 11 12 14 17 21 23 27 31 33 34 36 37 37 39 41 35 28 35 44 46 46 43 43 42 41 43 44 43 44 45 44 45 45 43 41 38 36 38 36 30 25 24 25 28 30 32 33 34 34 34 35 38 40
1 6 7 8 6 1 4 7 3 1 2 2 2 3 5 3 5 3 7 3 1 6 4 1 4 2 2 3 4 3 3 6 11 15 16 17 20 23 26 28 31 32 34 36 36 36 40 39 30 29 41 46 45 44 43 42 40 40 43 44 45 48 49 48 46 44 41 37 35 35 31 26 22 22 24 27 30 31 31 32 32 34 36 38 41 45
1 7 7 4 4 5 10 10 4 1 0 1 3 5 4 0 3 1 4 3 1 6 4 2 5 4 0 3 1 5 9 10 10 11 11 14 19 23 25 27 29 30 32 34 34 35 38 34 28 34 44 45 42 42 42 41 39 40 42 43 46 51 51 48 44 41 40 38 37 35 29 25 26 29 31 33 34 31 30 32 34 36 39 42 46 49
1 5 7 1 3 9 12 8 4 3 0 2 3 3 2 3 4 2 2 6 5 6 6 6 7 4 3 3 3 7 8 8 8 8 8 11 16 19 22 25 27 29 31 32 32 34 35 30 30 40 45 43 41 41 40 39 38 40 43 44 48 51 50 47 43 39 38 38 37 35 33 33 34 36 37 37 34 31 32 35 38 39 43 47 49 47
0 1 6 3 2 8 8 4 3 6 3 1 3 3 2 2 5 3 2 4 5 5 7 10 10 3 3 1 3 4 4 3 6 7 6 9 14 18 22 24 27 29 30 32 32 34 33 31 35 42 43 42 42 41 39 38 38 41 44 47 49 51 51 46 42 41 40 38 37 35 34 36 37 37 37 34 32 33 35 38 40 43 46 46 42 34
1 1 5 6 6 6 5 2 3 5 4 4 5 5 4 2 3 4 3 1 1 3 5 8 10 4 2 2 2 1 3 4 4 5 4 9 16 20 23 26 28 30 31 32 33 34 32 32 38 42 41 41 41 39 37 37 39 42 45 47 48 51 51 46 41 41 41 39 38 39 38 36 34 32 31 31 32 36 39 41 44 44 41 36 29 25
0 1 4 7 7 5 6 6 5 4 3 1 3 4 4 4 3 5 6 2 1 2 3 6 11 6 2 3 2 0 3 3 3 7 8 13 19 23 27 29 31 31 32 34 34 33 32 34 40 42 40 40 39 37 37 38 41 44 46 47 48 50 49 43 39 38 38 38 39 38 35 30 29 31 32 34 36 38 40 40 38 34 29 26 23 23
1 1 3 6 6 7 11 6 2 1 2 2 2 2 1 3 2 4 8 8 6 6 4 5 9 5 2 6 4 2 1 4 9 11 14 18 22 26 30 33 34 34 34 35 35 33 32 36 40 40 39 39 37 36 37 39 41 43 45 47 50 52 47 39 37 37 38 38 34 31 31 32 37 39 36 34 33 34 34 31 26 23 22 22 22 22
0 1 3 7 6 7 8 4 2 1 2 3 4 2 2 3 3 4 7 6 6 8 8 6 7 5 3 5 1 6 6 9 12 14 17 20 24 28 32 35 37 37 36 36 35 33 33 37 40 39 39 38 36 36 38 39 40 42 45 47 48 48 43 37 38 39 36 34 34 36 38 40 39 35 31 30 30 30 28 24 21 20 21 22 22 23
2 0 2 5 8 8 7 6 5 3 4 5 5 4 2 4 6 7 5 2 2 6 7 7 9 8 1 1 12 16 9 7 13 18 21 23 27 31 34 37 38 38 37 37 36 34 35 38 38 38 38 38 36 37 37 38 41 43 46 48 47 44 40 37 37 34 29 30 35 35 32 30 30 30 31 33 35 34 30 27 24 23 23 24 24 25
1 1 0 2 5 9 9 9 9 9 8 6 7 8 5 4 7 7 4 2 3 5 5 6 10 12 9 12 19 17 10 9 15 21 24 25 29 33 36 38 39 38 38 37 35 35 37 39 38 37 37 37 36 36 37 40 43 43 43 43 42 41 38 36 33 29 28 30 31 27 27 30 34 37 38 38 37 35 30 28 29 27 25 24 24 24
1 0 3 4 5 7 9 11 11 11 10 11 13 14 11 8 6 3 2 4 6 7 6 6 10 15 17 20 19 15 13 14 17 22 24 26 30 34 36 37 38 39 38 37 34 36 39 40 38 37 37 35 34 35 38 39 37 37 40 40 39 37 33 31 31 29 29 28 26 26 32 36 39 38 35 33 31 29 26 24 24 23 22 21 22 22
3 3 5 6 8 10 11 14 15 12 11 14 16 15 13 12 6 2 3 6 8 9 10 11 15 19 21 21 17 13 12 12 16 22 25 27 32 36 36 37 39 39 37 35 35 38 40 40 40 39 37 34 33 35 39 41 37 35 39 41 39 34 30 29 30 29 29 28 26 28 32 33 33 32 29 28 26 26 27 24 19 19 21 22 23 24
3 3 5 4 7 12 12 15 16 11 9 12 13 13 13 12 6 2 4 8 8 7 12 18 22 22 22 18 13 12 15 16 20 27 30 33 36 37 38 39 38 36 35 35 38 39 39 39 40 40 37 34 34 36 39 42 40 37 38 40 37 32 29 29 29 29 29 29 28 30 31 30 30 29 27 27 26 26 26 24 20 22 25 26 26 27
2 4 4 2 9 14 13 13 12 9 10 13 14 14 11 8 6 3 4 8 8 10 15 21 24 22 16 12 12 18 24 26 28 32 33 34 36 39 40 38 35 35 36 37 38 38 37 38 39 39 37 34 35 37 39 41 39 36 38 41 36 29 27 29 29 28 28 28 29 30 30 28 28 27 26 26 27 26 25 24 24 26 28 28 27 26
2 3 3 2 7 13 11 9 8 8 12 15 14 12 8 6 5 5 5 7 10 14 18 21 21 17 10 11 19 25 29 29 29 31 32 33 38 40 38 36 37 38 39 39 38 37 37 39 39 38 36 34 35 38 40 41 42 40 40 40 34 27 27 28 28 28 28 29 30 29 28 27 26 26 26 27 27 26 23 24 27 29 30 28 25 23
2 3 3 4 6 11 9 9 14 15 14 11 9 8 7 5 4 5 7 10 13 18 22 20 16 10 8 15 22 25 27 27 26 28 30 35 41 40 35 36 40 41 42 42 40 38 39 42 41 37 34 34 37 40 42 42 42 41 41 38 31 26 26 27 27 28 28 28 29 27 26 26 26 26 27 27 26 25 24 26 28 30 29 25 22 19
2 2 4 4 5 11 12 13 15 13 10 7 3 3 5 8 9 9 10 13 16 17 16 14 10 10 14 18 19 20 22 23 24 28 32 37 40 38 34 36 42 43 41 41 42 41 42 43 40 36 35 36 38 41 43 42 40 40 42 38 30 25 26 27 28 28 27 26 27 26 26 27 27 27 27 26 25 25 25 28 29 27 25 23 20 18
2 1 2 1 2 9 14 13 11 8 8 5 1 2 3 8 12 15 17 18 18 14 10 9 11 14 17 17 18 19 22 25 31 36 39 39 38 36 38 42 43 40 38 40 43 41 40 41 39 37 37 38 41 43 43 39 36 39 43 38 29 26 27 28 27 25 24 25 26 27 27 27 27 27 27 26 26 27 27 28 27 25 23 22 20 18
3 3 3 1 2 6 9 7 8 9 6 0 3 1 5 7 12 17 20 19 18 13 9 11 15 18 20 24 27 28 31 37 42 43 40 38 38 41 45 46 42 37 37 39 39 38 41 43 41 39 38 39 43 45 40 35 36 42 43 35 27 26 28 28 26 24 24 26 27 27 27 27 27 27 28 28 29 29 29 28 26 24 23 21 18 15
3 3 2 1 2 5 8 7 7 11 8 1 2 7 10 11 13 17 18 15 11 6 8 14 18 21 25 30 33 35 40 42 41 38 35 37 43 46 45 43 40 37 36 37 39 43 45 42 38 37 39 43 46 41 32 32 39 42 38 30 25 26 28 27 26 25 25 27 28 28 28 28 28 30 30 31 30 30 28 27 25 23 21 18 16 14
1 1 2 2 1 2 6 6 7 11 9 3 4 9 12 13 15 16 16 12 5 6 15 19 18 22 28 32 37 42 44 37 26 22 31 44 50 46 40 37 35 33 35 40 44 43 38 35 36 40 44 47 42 31 27 35 42 40 32 27 25 26 27 26 26 27 27 28 28 29 30 30 31 32 32 31 30 29 28 26 24 21 19 18 15 13
1 1 0 1 2 1 3 7 8 9 8 3 4 13 19 23 24 20 16 9 4 15 28 24 19 26 32 34 40 43 38 25 11 13 34 52 51 44 39 34 31 35 43 45 41 37 36 39 43 44 45 42 30 24 32 42 41 34 28 26 27 27 27 27 27 28 29 29 30 31 32 32 32 32 32 30 29 28 26 24 21 18 17 16 15 13
4 1 3 1 3 2 3 6 6 6 5 4 8 18 27 31 29 21 14 8 8 23 35 28 24 32 34 36 41 35 23 14 9 20 45 55 47 42 38 33 36 44 47 40 35 40 46 46 45 43 39 31 25 30 41 42 34 28 27 27 28 27 28 29 29 29 30 30 32 33 33 32 31 30 30 29 27 25 23 21 20 19 18 17 16 16
5 4 3 1 5 4 3 4 4 4 5 6 13 24 33 34 27 15 8 9 17 30 37 32 32 37 38 41 40 25 14 15 18 31 49 50 42 40 36 37 46 47 40 38 42 49 49 43 40 39 32 27 31 39 41 35 29 28 28 28 28 28 30 30 29 29 31 32 33 33 32 31 30 29 27 26 25 24 22 21 21 20 19 17 16 16
3 2 2 1 5 5 4 4 4 4 4 9 19 30 36 32 19 8 6 16 28 37 39 37 38 40 40 42 36 25 25 32 34 41 48 44 41 41 39 43 47 40 37 45 49 47 42 36 34 33 30 31 38 39 35 31 29 29 29 28 29 30 31 30 30 31 33 34 33 32 31 29 28 26 25 24 24 24 22 22 22 20 18 17 16 15
3 3 3 2 4 5 4 4 7 5 4 19 32 35 32 21 9 8 18 30 37 39 40 41 42 41 42 43 39 36 39 42 41 43 44 41 41 43 42 44 43 39 44 50 45 39 37 34 32 33 33 36 38 34 31 30 29 30 30 29 30 32 32 31 32 34 35 34 33 31 30 28 26 24 24 25 25 24 23 22 20 19 17 16 14 14
2 3 5 3 3 5 5 4 6 5 11 31 35 24 16 13 12 21 31 35 37 40 43 43 42 41 43 44 42 41 41 41 41 42 41 40 41 40 39 40 41 44 48 46 38 35 36 36 38 36 33 34 35 32 30 30 30 31 31 31 32 34 33 33 35 35 34 33 32 30 28 26 25 25 25 25 25 23 21 19 18 17 15 14 13 13
1 2 5 4 1 4 4 3 4 8 18 33 29 15 13 20 26 33 35 33 36 41 43 42 42 43 44 43 41 41 40 40 40 40 40 41 40 38 37 37 39 44 45 38 34 36 38 40 39 35 32 34 34 31 30 31 33 33 32 33 34 35 35 36 36 34 33 32 31 29 28 26 25 25 25 24 23 22 21 19 17 15 13 13 14 14
2 2 5 4 2 2 6 8 11 17 24 31 26 20 24 31 35 37 36 35 38 41 41 40 42 43 42 41 39 39 38 38 39 38 39 40 38 37 38 37 37 40 39 34 35 40 40 39 37 35 34 35 33 32 32 33 35 35 35 35 36 35 36 37 35 34 33 31 29 29 27 26 26 26 25 24 24 23 22 20 17 15 14 13 13 13
4 6 5 4 4 7 10 12 17 24 30 33 29 26 31 35 36 37 37 37 39 40 41 40 40 40 39 38 38 37 36 37 37 37 38 38 36 37 38 37 37 37 35 34 39 41 40 38 37 36 36 35 34 34 35 35 36 36 35 36 36 36 37 36 34 33 32 30 29 28 28 28 27 26 24 23 22 22 22 20 19 16 14 15 15 15
7 10 7 4 6 8 6 10 18 25 29 31 30 31 36 37 35 36 38 39 38 38 39 40 38 37 38 38 36 34 34 36 36 36 37 37 36 36 36 36 37 36 34 36 40 40 38 39 39 37 36 36 37 37 37 37 37 35 35 36 36 37 36 35 34 33 31 30 29 28 28 29 28 26 24 22 21 20 19 18 17 16 15 16 17 16
8 13 8 4 6 7 8 14 25 31 29 25 27 33 37 36 36 38 40 39 37 37 39 38 36 36 38 38 33 31 34 36 35 36 37 36 35 35 36 36 37 34 34 37 39 39 39 39 38 37 36 37 38 38 38 38 36 35 36 36 36 36 36 34 33 31 30 30 29 28 28 28 28 27 25 22 21 21 21 20 18 16 15 15 16 17
11 11 7 7 9 8 9 18 28 29 24 24 30 35 35 34 37 40 40 39 39 40 40 38 35 35 35 32 30 32 35 34 34 35 36 34 34 35 35 36 36 33 35 38 38 38 39 39 38 38 38 38 39 39 39 37 36 36 36 36 36 36 35 34 32 30 29 29 28 28 28 28 27 28 26 23 21 20 20 21 20 18 15 13 13 16
10 7 7 8 8 6 9 18 24 18 16 23 32 34 33 34 37 39 39 38 39 41 40 38 37 37 34 29 29 34 36 34 33 34 33 32 33 34 34 36 35 34 35 37 38 39 39 38 38 38 38 39 39 39 39 38 36 35 35 36 36 35 34 34 32 30 29 29 28 28 29 28 27 27 26 25 24 21 20 19 18 18 16 13 12 13
11 8 9 7 6 9 16 23 25 20 19 27 34 34 33 35 37 38 38 38 39 38 35 33 34 36 34 31 30 34 34 32 32 33 32 32 32 33 34 34 33 33 35 37 39 41 40 38 38 38 38 40 40 39 39 38 37 36 36 35 34 33 32 32 32 31 30 29 29 29 29 28 28 27 26 26 26 26 25 20 16 15 14 12 11 12
Wind_Direction
44 56 43 13 301 307 298 224 168 181 187 267 307 275 287 290 282 288 283 298 358 347 287 289 307 293 300 334 348 127 121 108 109 102 95 93 81 69 55 40 36 32 23 16 12 8 4 358 350 346 344 345 345 345 344 341 340 339 338 337 335 334 332 331 328 319 312 311 314 316 316 314 309 301 295 292 292 292 291 291 293 292 291 296 297 296
57 67 7 297 264 282 312 288 95 53 51 21 357 329 327 311 296 296 280 291 10 5 298 313 332 304 339 11 34 100 103 96 101 97 90 87 73 60 49 37 29 21 15 14 12 5 359 353 348 345 345 346 345 344 344 341 340 339 338 336 334 332 329 327 324 315 308 308 310 313 314 315 311 305 299 296 295 293 290 288 290 291 290 294 296 293
45 52 308 297 275 45 31 39 52 33 19 10 2 355 336 314 303 297 257 257 16 347 302 327 348 326 27 37 43 77 88 88 92 92 87 80 67 55 44 30 20 16 13 11 6 360 356 351 348 346 346 346 345 346 345 341 340 337 335 333 331 329 326 321 316 313 312 312 311 309 309 308 305 302 298 296 295 293 290 286 286 288 290 294 293 289
42 330 304 346 41 53 21 10 42 29 358 343 339 342 308 307 330 311 287 305 336 274 279 311 325 5 59 54 49 69 87 89 86 84 79 70 59 49 38 25 19 16 10 5 1 357 353 349 348 346 345 346 347 346 343 340 337 334 332 329 327 326 321 315 311 313 315 315 314 310 307 304 301 298 294 291 290 291 293 291 286 285 287 291 289 286
217 272 307 39 45 53 24 360 47 42 340 307 255 292 308 307 304 276 285 308 317 277 273 321 332 21 68 77 76 76 83 83 81 80 74 61 48 37 28 21 17 14 7 2 358 353 350 348 346 345 345 346 345 342 339 337 334 331 329 325 322 321 316 311 311 314 316 316 315 312 311 306 300 295 292 290 290 293 299 299 294 290 289 290 287 283
283 294 332 39 26 41 53 2 59 115 340 318 254 243 289 297 297 287 293 320 339 316 336 19 4 320 69 102 114 97 81 76 75 74 67 50 36 29 23 16 13 11 5 360 355 350 348 346 345 345 345 344 340 338 335 333 330 329 328 321 316 315 314 315 316 318 319 317 315 314 315 309 302 298 295 296 299 301 303 303 299 295 293 293 289 283
307 359 53 80 39 31 38 354 242 162 7 316 251 244 283 289 300 299 303 333 349 284 313 53 95 254 266 110 143 128 98 90 78 70 56 39 29 26 20 12 10 6 359 355 351 348 346 346 347 345 342 339 336 334 332 329 329 331 329 317 309 314 320 323 321 318 319 320 317 313 310 306 304 305 303 303 305 305 306 304 299 297 296 294 292 287
283 358 25 54 46 38 22 338 264 196 284 277 266 320 311 303 305 300 302 295 232 265 316 1 153 233 277 78 166 144 107 91 75 61 42 31 25 21 15 10 8 2 356 353 348 347 347 346 346 342 339 337 335 334 333 330 329 330 328 318 316 321 324 324 319 314 318 324 323 315 307 303 303 307 308 307 307 306 305 301 299 302 301 297 295 292
274 1 342 13 40 30 332 296 264 212 237 265 273 296 285 294 298 291 293 270 249 250 301 319 341 272 304 53 179 180 122 97 66 45 26 22 20 16 11 6 2 357 354 351 347 346 345 344 343 341 339 338 338 338 336 331 329 329 326 323 325 325 326 325 316 308 316 323 324 320 311 304 302 302 303 305 306 305 305 301 299 304 304 299 299 299
292 296 260 134 76 323 273 278 249 183 260 273 285 303 286 286 282 276 279 263 290 185 240 288 4 344 306 153 190 208 113 87 33 27 16 14 15 11 6 1 357 355 352 349 347 345 343 343 343 343 343 342 341 339 336 332 330 328 327 326 327 325 325 324 314 301 311 320 319 319 314 306 303 301 300 302 304 304 306 306 303 303 304 301 301 300
304 281 220 139 126 242 263 279 236 193 270 304 336 334 317 300 263 277 324 89 32 299 236 234 140 28 315 213 179 163 112 108 45 17 8 9 10 5 0 358 355 352 349 347 345 344 343 343 344 346 346 344 343 342 340 337 334 333 332 329 328 325 323 323 316 301 305 316 316 315 314 309 304 300 297 299 300 302 305 309 308 303 300 299 299 298
330 358 190 284 271 323 304 285 265 242 317 0 20 340 334 325 326 1 6 39 13 296 250 208 37 359 287 235 137 131 139 116 81 32 9 7 5 359 355 354 352 350 347 347 347 346 345 344 345 345 345 345 346 345 341 338 335 334 333 331 329 328 326 324 318 307 310 317 315 311 308 306 303 298 293 292 295 301 304 308 311 307 300 297 298 299
339 188 301 301 262 18 358 308 314 329 6 19 10 4 358 339 339 338 332 345 305 280 252 242 5 339 244 206 125 144 143 100 97 71 30 8 0 355 353 352 351 349 349 350 349 346 344 342 341 341 342 345 344 342 338 335 335 334 333 332 330 329 329 326 323 319 319 319 317 311 304 300 298 294 288 287 291 299 302 306 312 311 304 297 295 295
328 291 329 343 316 359 8 349 329 326 353 359 353 36 21 337 327 310 305 313 290 276 259 313 349 302 251 118 132 156 128 79 72 55 28 12 2 355 352 352 351 351 352 351 348 344 340 338 336 336 340 342 339 338 336 336 337 336 334 333 330 328 327 325 322 320 317 317 316 311 304 298 292 286 283 284 290 296 302 306 310 311 305 298 294 291
335 304 319 29 316 335 350 286 270 293 310 307 190 128 78 305 290 283 263 283 295 292 293 331 323 250 244 155 144 145 114 77 52 33 18 10 3 355 352 353 354 353 352 348 344 340 338 335 333 334 339 338 336 335 335 334 334 335 335 333 330 328 325 321 319 317 314 313 311 308 305 297 285 279 280 284 291 297 301 306 309 310 307 302 299 296
305 270 261 317 300 314 342 292 251 339 306 276 135 89 326 231 201 257 247 234 278 288 286 315 261 219 168 146 142 135 125 84 33 10 10 5 357 356 355 355 354 351 347 344 341 339 337 335 332 333 336 335 333 332 332 331 331 331 334 333 331 328 325 321 319 317 315 312 309 310 307 293 279 282 289 294 299 301 303 307 308 307 305 303 302 301
331 274 280 326 311 221 357 311 264 78 309 320 13 294 269 200 158 253 277 248 313 292 274 194 255 277 79 162 170 123 63 31 11 3 2 355 353 356 355 353 349 345 343 341 339 337 335 333 328 329 332 331 330 329 329 329 328 328 331 332 331 328 325 321 318 316 316 315 313 316 311 292 285 299 303 305 309 307 306 305 303 302 300 299 300 301
239 284 289 314 281 292 338 322 264 202 38 11 315 280 275 260 127 159 286 302 331 279 274 176 228 264 302 242 279 21 13 7 355 350 348 347 355 357 349 345 341 339 338 336 334 333 332 328 322 326 329 329 328 328 327 327 326 327 329 330 329 328 326 323 319 316 316 316 315 316 312 300 302 307 306 308 310 306 301 299 297 297 297 298 301 302
178 294 297 266 245 302 334 346 297 298 339 202 270 297 359 330 314 352 304 298 295 280 288 281 265 253 224 248 356 14 2 347 328 327 337 349 357 349 338 335 333 333 334 332 330 329 327 321 319 325 327 327 326 326 326 325 324 326 328 328 329 329 327 323 319 316 313 314 313 312 308 304 304 305 305 307 303 296 294 294 294 295 298 301 302 302
173 271 288 298 341 320 336 10 311 302 302 317 333 349 23 297 278 287 271 291 297 283 287 295 294 274 196 216 27 1 328 304 302 315 335 345 344 335 330 329 328 329 329 328 326 325 322 318 320 325 326 325 325 325 325 325 324 325 326 326 328 329 327 321 316 314 311 310 310 308 305 303 302 302 302 299 293 291 293 293 295 298 300 302 301 300
10 225 268 293 339 347 336 293 259 282 301 344 352 327 326 313 268 285 272 179 205 273 284 296 294 285 139 121 101 279 241 223 269 311 330 333 330 327 326 325 324 325 325 325 324 321 318 317 321 325 325 324 324 324 324 325 324 324 325 327 328 328 326 319 312 312 310 307 307 306 306 305 303 300 297 294 294 296 297 297 299 300 301 300 299 299
68 228 257 292 326 322 288 260 224 246 267 309 320 300 300 299 300 309 298 280 153 253 258 280 286 288 133 137 133 191 221 216 320 334 329 326 325 323 323 323 322 322 322 323 322 319 316 318 322 323 323 324 324 323 324 324 324 325 326 328 329 328 325 318 312 312 310 308 307 306 308 307 305 305 303 301 301 301 301 301 302 301 300 300 300 301
164 139 266 284 286 267 277 281 167 218 251 220 253 253 271 289 295 297 293 301 301 278 258 255 275 292 137 147 133 126 193 351 350 336 324 321 321 320 321 322 321 321 321 322 320 317 315 319 322 322 322 324 324 322 324 324 325 326 326 326 328 328 324 316 311 311 310 309 306 304 304 303 305 308 308 305 304 304 306 307 306 306 307 306 306 306
112 75 323 300 292 276 284 311 91 103 354 329 295 290 318 289 260 251 270 296 298 285 291 282 273 291 161 164 10 1 1 353 340 327 318 313 315 318 320 321 322 322 321 320 319 317 316 320 322 322 323 324 324 323 324 325 326 328 327 325 327 329 324 313 310 311 310 306 304 305 303 301 303 307 308 309 307 308 312 312 308 306 306 305 304 304
319 304 351 326 321 323 327 334 324 316 343 327 296 292 299 285 293 293 288 315 278 257 276 288 287 299 298 317 334 340 350 341 324 321 318 314 315 319 320 322 322 320 319 319 319 317 318 321 322 322 324 324 324 324 324 326 328 329 329 328 328 328 322 314 313 314 312 309 310 311 308 307 308 309 311 313 309 307 307 301 295 296 300 303 302 300
288 243 25 344 317 317 321 322 318 321 326 314 296 299 301 282 287 297 306 317 284 261 261 267 281 300 322 329 328 333 342 334 324 322 319 316 317 319 321 321 320 319 319 319 318 318 320 322 322 323 325 325 325 324 326 330 331 331 332 331 328 326 321 318 317 315 313 314 315 315 314 314 316 314 311 310 309 308 305 295 291 297 304 304 301 298
110 251 227 206 225 261 280 286 294 308 309 302 305 307 308 303 288 286 305 292 300 309 293 271 289 308 318 321 326 336 341 331 323 322 320 318 320 320 319 318 317 318 318 318 318 319 321 323 324 325 326 326 324 325 330 334 332 330 332 332 329 326 321 319 318 316 314 316 316 316 315 313 315 315 312 310 310 313 312 304 296 299 301 296 292 291
86 322 260 216 225 246 264 279 288 296 288 287 297 302 307 314 309 203 248 294 330 332 305 304 317 315 311 317 330 340 334 322 318 320 320 320 320 319 318 317 317 317 317 318 319 321 323 325 326 328 328 327 326 328 333 335 333 331 332 331 330 326 321 319 319 317 315 314 313 315 316 314 315 317 316 317 318 318 320 319 309 300 296 292 290 286
118 266 255 227 263 269 270 280 288 289 279 281 293 300 306 310 305 217 259 305 337 317 293 306 314 307 306 320 336 337 326 318 316 319 321 321 321 320 318 317 317 318 317 318 320 323 325 327 328 330 329 328 330 334 336 335 334 335 334 333 331 326 322 321 319 317 316 315 313 312 314 315 315 317 319 319 317 315 316 316 311 305 299 293 290 286
111 256 265 268 284 288 288 282 280 285 296 300 301 304 312 314 314 321 296 298 300 283 286 300 302 300 309 329 332 326 323 320 319 321 322 322 321 320 318 317 318 319 318 319 321 325 327 329 330 331 329 329 334 337 337 335 335 336 335 335 332 326 324 323 320 318 317 317 317 317 316 317 316 317 318 315 313 311 312 312 309 305 301 297 293 289
51 283 305 8 304 299 296 288 295 308 306 303 304 316 347 13 358 338 313 301 300 297 298 301 300 302 321 333 323 321 324 324 323 323 324 323 321 319 317 318 321 321 320 322 324 327 331 333 333 332 331 333 336 336 336 335 335 334 334 335 332 327 326 325 321 320 319 319 320 320 318 318 317 316 315 313 313 313 312 310 306 303 303 304 301 298
37 300 328 28 329 301 305 321 323 318 307 304 317 337 358 18 352 314 310 316 316 310 309 310 309 311 328 328 321 321 327 327 323 322 323 321 319 318 318 321 324 323 323 325 328 331 335 336 334 334 335 336 337 336 335 334 334 334 336 335 331 326 326 325 324 323 322 321 322 321 320 320 318 316 314 313 315 315 312 308 306 308 311 312 311 309
65 328 323 5 319 301 315 326 318 311 314 324 333 332 337 340 332 317 316 322 318 313 313 316 321 324 325 324 322 324 328 325 321 322 320 316 317 320 323 325 324 324 326 332 335 337 338 338 337 337 338 338 337 336 335 333 333 336 337 334 328 325 327 327 327 325 323 323 323 322 322 320 318 317 315 315 314 312 312 313 315 319 322 322 322 321
36 20 303 314 284 296 307 315 315 319 337 340 227 190 334 338 330 323 324 324 319 316 321 324 322 322 322 324 324 323 323 320 319 319 317 317 321 324 328 328 327 328 336 341 342 341 341 342 340 337 337 336 335 335 334 332 334 337 337 334 328 327 329 329 328 326 324 325 325 324 323 321 320 319 317 316 316 315 319 324 326 328 330 329 329 327
344 340 292 245 220 282 299 327 338 328 328 307 169 10 342 323 319 322 320 319 320 324 331 328 322 322 324 323 321 317 316 316 316 316 317 323 329 331 332 333 334 338 344 347 346 345 342 339 337 336 336 336 336 335 333 334 337 337 336 334 331 330 332 331 329 328 326 326 326 325 325 323 321 320 320 321 322 325 330 333 333 334 335 333 332 332
303 313 297 261 246 305 328 353 333 307 307 35 66 354 340 327 330 328 320 322 335 343 337 329 324 324 323 320 318 317 316 315 314 315 321 331 336 337 337 339 342 346 349 349 346 341 337 336 336 338 338 336 336 335 334 338 340 337 335 334 332 333 335 333 331 329 328 328 327 327 327 325 323 324 327 329 331 334 337 337 338 339 338 336 340 347
268 295 345 321 246 318 324 312 290 293 309 13 31 349 343 343 344 334 320 326 6 9 342 333 325 323 322 319 320 321 320 317 311 314 330 338 341 341 342 345 349 352 350 345 340 339 339 341 341 339 337 336 337 337 338 340 340 337 336 335 333 333 335 334 332 331 329 329 328 328 328 329 330 331 333 336 338 339 340 340 341 343 344 345 353 4
98 178 98 318 295 16 331 311 311 314 323 354 346 341 352 352 341 326 312 315 6 354 342 333 321 324 325 323 325 325 323 321 310 323 338 342 344 346 347 350 354 352 346 343 344 347 347 344 341 338 337 339 342 342 340 340 341 341 340 337 335 336 336 335 334 332 331 330 330 331 334 335 336 336 337 340 341 341 343 345 346 349 352 354 2 13
10 28 123 148 283 329 346 313 308 305 311 340 339 343 353 350 335 322 313 316 349 346 339 331 325 328 328 328 330 329 327 328 325 333 339 342 347 350 352 354 353 347 345 348 351 348 344 340 340 340 343 349 351 343 340 342 345 345 341 338 338 338 337 336 335 333 332 333 334 337 339 340 339 340 341 342 343 345 348 351 354 1 5 7 11 17
356 4 47 354 285 305 317 296 293 283 295 339 350 349 351 345 337 335 328 325 340 341 336 332 330 331 332 333 334 335 338 335 328 332 339 343 348 351 352 352 349 346 348 352 347 341 340 341 344 348 354 355 347 341 342 346 348 344 340 339 340 339 337 336 334 332 334 337 340 342 344 346 345 345 346 346 348 352 356 359 5 11 12 13 17 19
347 2 21 285 286 312 301 283 310 296 292 351 357 353 350 345 344 4 343 326 332 333 333 334 333 333 337 338 337 337 334 331 329 333 339 344 346 347 346 346 346 347 347 345 341 341 346 350 352 356 353 344 341 344 348 348 346 342 340 340 341 339 338 336 334 336 341 344 346 347 350 351 351 352 354 356 357 0 5 9 13 14 13 15 17 15
347 341 340 310 306 315 292 301 323 304 3 8 358 353 355 354 350 347 332 328 329 329 332 337 337 336 339 338 336 334 330 331 334 336 339 343 344 343 342 343 347 346 341 341 345 353 356 354 352 351 346 341 345 350 350 347 345 344 342 341 341 340 339 337 339 343 346 348 350 353 355 357 359 1 4 5 6 9 12 14 14 13 10 9 7 5
316 327 336 324 308 315 309 333 335 308 359 4 356 352 4 5 339 330 328 328 332 334 335 337 337 339 340 336 334 334 333 335 338 338 339 342 342 341 341 343 346 344 342 346 354 358 354 349 348 348 347 347 349 350 349 348 346 345 343 342 343 344 343 343 346 348 350 352 355 357 360 3 7 10 11 11 12 14 15 15 14 11 6 0 356 356
254 357 335 301 307 354 334 321 317 312 342 354 351 341 349 348 338 335 332 331 336 339 338 337 337 339 339 336 336 337 338 338 340 340 341 341 340 341 342 344 345 344 346 352 355 350 347 348 351 352 350 349 351 351 350 350 347 345 344 345 347 349 348 348 350 352 354 356 359 2 6 9 13 16 17 16 15 17 17 16 14 10 4 360 357 356
290 323 308 276 237 271 260 268 305 323 336 343 342 339 343 343 340 340 339 337 338 340 340 339 337 337 339 340 340 340 340 340 341 342 341 339 340 342 343 344 346 346 348 352 349 345 348 353 355 353 349 350 352 351 350 351 350 348 347 349 351 350 349 351 353 355 358 1 4 7 10 13 17 19 19 18 18 17 16 14 13 11 6 1 0 0
322 325 306 279 284 284 272 288 318 331 335 337 340 345 346 344 343 343 343 342 341 340 341 340 338 338 341 343 343 343 341 340 340 340 340 339 340 342 343 344 346 347 349 349 347 348 354 356 355 352 350 350 352 351 351 353 353 351 350 352 352 352 351 353 356 358 1 5 7 10 13 15 19 22 21 22 22 19 17 14 11 9 6 3 4 5
340 343 329 307 324 321 297 305 326 333 334 335 341 346 346 344 344 344 344 343 341 340 341 342 341 342 343 345 347 346 343 341 340 339 341 341 341 343 345 346 347 349 349 348 349 353 356 355 354 352 350 349 351 352 353 355 355 355 354 354 354 354 355 356 358 0 4 7 10 13 15 16 18 21 24 25 24 22 22 19 16 14 9 5 5 7
335 343 338 316 321 312 292 314 330 332 332 338 346 346 345 344 343 342 342 342 342 342 344 346 347 346 345 346 348 346 342 342 342 341 341 342 343 345 346 346 347 349 348 349 353 355 355 354 354 352 349 348 352 354 355 356 357 358 357 357 357 357 357 359 1 3 6 9 11 15 17 18 18 20 24 26 24 22 21 20 20 21 17 11 7 7
336 337 333 321 318 306 303 330 339 335 332 342 347 345 344 343 341 341 343 343 345 346 347 348 349 348 347 348 349 346 343 342 343 344 343 343 345 347 347 347 348 348 348 350 353 354 354 354 355 353 351 352 353 355 356 357 359 360 0 0 360 360 360 0 2 5 8 10 13 15 17 19 19 19 22 24 25 27 26 23 21 19 19 21 17 12
351 338 336 337 332 322 322 336 344 337 325 334 340 341 342 342 341 343 346 347 348 348 347 347 348 350 352 352 348 346 344 343 344 346 346 346 347 348 347 347 348 348 348 350 353 355 356 357 356 355 355 354 355 356 357 358 0 2 3 3 2 3 3 2 2 6 9 11 14 15 16 17 19 20 21 21 21 24 30 35 33 24 18 19 22 23
360 341 340 336 306 308 320 330 337 331 318 325 334 338 341 342 343 347 349 348 347 348 347 347 348 350 352 350 347 347 347 345 346 347 347 348 348 348 348 348 349 349 349 351 354 356 358 358 358 358 356 356 357 358 358 359 2 3 4 5 5 5 6 5 4 5 7 10 13 15 15 16 17 19 21 21 19 18 21 30 43 44 32 22 23 27
Height
1530 1532 1538 1540 1540 1540 1539 1540 1539 1538 1540 1539 1539 1538 1535 1533 1530 1525 1521 1516 1516 1512 1504 1506 1509 1505 1502 1502 1501 1502 1505 1509 1512 1515 1517 1519 1521 1522 1523 1523 1523 1523 1522 1522 1521 1519 1518 1516 1514 1513 1510 1509 1506 1504 1502 1500 1498 1496 1494 1492 1489 1487 1485 1483 1481 1479 1478 1476 1474 1472 1470 1467 1465 1465 1464 1463 1463 1462 1461 1460 1459 1458 1457 1456 1456 1455
1532 1536 1543 1542 1541 1541 1540 1540 1539 1538 1539 1538 1537 1536 1532 1530 1526 1522 1520 1516 1516 1515 1505 1504 1508 1504 1505 1507 1504 1503 1507 1511 1514 1516 1519 1520 1521 1522 1523 1523 1523 1523 1522 1521 1519 1518 1517 1515 1513 1511 1509 1506 1504 1501 1500 1498 1495 1494 1491 1489 1486 1484 1482 1480 1479 1477 1476 1474 1472 1469 1467 1465 1463 1462 1461 1460 1459 1459 1458 1457 1456 1455 1453 1452 1452 1451
1536 1540 1543 1541 1541 1541 1540 1540 1538 1536 1537 1537 1537 1536 1533 1530 1525 1517 1516 1516 1517 1516 1505 1503 1508 1508 1511 1513 1510 1509 1511 1514 1516 1517 1520 1521 1521 1522 1523 1523 1522 1521 1520 1519 1518 1517 1516 1514 1512 1509 1507 1505 1502 1500 1498 1496 1494 1492 1489 1487 1485 1482 1481 1479 1477 1476 1473 1472 1470 1467 1464 1462 1461 1459 1458 1457 1456 1455 1454 1453 1452 1451 1450 1449 1448 1448
1540 1542 1542 1541 1540 1539 1539 1539 1538 1537 1537 1537 1537 1535 1532 1532 1531 1523 1514 1513 1517 1516 1508 1505 1508 1510 1515 1515 1515 1516 1515 1517 1519 1518 1520 1521 1522 1523 1523 1523 1521 1520 1520 1518 1517 1516 1514 1513 1510 1508 1505 1502 1501 1499 1496 1494 1492 1489 1487 1485 1483 1481 1479 1477 1475 1473 1471 1469 1466 1464 1462 1460 1458 1456 1455 1453 1452 1451 1450 1449 1448 1447 1446 1445 1444 1443
1542 1543 1541 1541 1540 1539 1539 1538 1539 1539 1537 1537 1535 1534 1533 1531 1532 1529 1519 1514 1515 1512 1509 1508 1504 1507 1517 1519 1519 1521 1518 1518 1520 1519 1521 1521 1522 1523 1522 1521 1521 1520 1520 1518 1517 1515 1513 1511 1509 1506 1504 1501 1499 1497 1495 1493 1490 1488 1485 1483 1481 1479 1477 1475 1473 1471 1469 1466 1463 1460 1458 1456 1454 1452 1450 1449 1447 1447 1446 1445 1443 1442 1442 1441 1440 1440
1542 1542 1541 1540 1539 1540 1540 1538 1540 1540 1537 1535 1532 1532 1533 1530 1529 1526 1521 1519 1517 1511 1508 1509 1507 1507 1515 1521 1521 1521 1520 1520 1521 1520 1521 1522 1522 1521 1521 1521 1521 1520 1520 1518 1517 1515 1512 1510 1508 1505 1503 1501 1499 1496 1494 1491 1489 1486 1483 1481 1479 1477 1475 1473 1471 1469 1466 1463 1460 1457 1455 1453 1450 1448 1446 1445 1444 1442 1441 1440 1439 1438 1437 1437 1436 1436
1542 1542 1541 1541 1540 1540 1539 1538 1539 1540 1538 1534 1530 1530 1531 1529 1527 1522 1520 1523 1520 1513 1509 1510 1513 1511 1510 1517 1521 1521 1522 1521 1521 1521 1521 1522 1522 1521 1521 1521 1520 1520 1518 1517 1516 1514 1512 1509 1507 1505 1503 1500 1497 1495 1492 1489 1487 1484 1481 1479 1477 1475 1473 1470 1468 1466 1463 1460 1458 1455 1453 1451 1448 1446 1444 1442 1441 1439 1438 1437 1435 1434 1433 1433 1432 1431
1543 1542 1541 1541 1541 1539 1538 1538 1538 1539 1539 1532 1526 1529 1528 1525 1524 1520 1520 1523 1519 1514 1512 1510 1512 1510 1506 1512 1520 1520 1521 1522 1520 1521 1521 1521 1521 1521 1521 1521 1520 1519 1517 1516 1514 1512 1511 1508 1506 1504 1501 1498 1495 1492 1489 1487 1485 1482 1479 1477 1474 1472 1469 1467 1465 1462 1460 1457 1455 1453 1450 1448 1446 1444 1442 1440 1438 1436 1435 1433 1432 1431 1430 1429 1428 1427
1544 1542 1541 1541 1541 1540 1538 1538 1538 1538 1536 1528 1526 1528 1526 1523 1521 1517 1518 1520 1518 1516 1514 1511 1510 1509 1507 1513 1520 1518 1518 1522 1521 1521 1521 1520 1521 1521 1520 1520 1519 1518 1517 1515 1513 1511 1509 1507 1504 1502 1498 1496 1493 1489 1487 1484 1482 1479 1476 1474 1471 1469 1466 1464 1462 1459 1456 1454 1452 1450 1448 1445 1443 1441 1439 1437 1435 1433 1431 1430 1428 1427 1425 1424 1424 1424
1544 1542 1542 1541 1541 1541 1538 1537 1537 1537 1534 1528 1527 1526 1523 1521 1517 1515 1517 1516 1516 1515 1513 1513 1512 1513 1513 1513 1516 1514 1516 1522 1521 1520 1521 1520 1520 1520 1519 1519 1517 1516 1514 1513 1511 1509 1507 1504 1502 1499 1496 1493 1489 1487 1484 1482 1479 1476 1473 1471 1468 1465 1462 1460 1458 1455 1453 1451 1449 1447 1445 1442 1440 1438 1436 1434 1432 1430 1428 1426 1424 1423 1422 1420 1420 1419
1543 1542 1542 1541 1541 1541 1539 1537 1535 1535 1533 1528 1527 1525 1519 1516 1515 1515 1517 1516 1516 1512 1509 1513 1513 1515 1518 1512 1511 1515 1519 1522 1521 1520 1520 1519 1518 1518 1517 1516 1515 1514 1512 1510 1508 1506 1504 1501 1498 1494 1491 1488 1486 1483 1482 1479 1477 1474 1471 1468 1465 1462 1459 1457 1454 1451 1449 1447 1445 1443 1441 1439 1436 1434 1432 1430 1428 1426 1424 1422 1421 1420 1418 1417 1416 1415
1543 1541 1541 1541 1540 1540 1539 1537 1534 1533 1533 1528 1529 1527 1519 1516 1515 1515 1515 1517 1519 1512 1508 1512 1512 1513 1516 1510 1512 1519 1520 1520 1519 1519 1519 1518 1518 1517 1517 1516 1514 1513 1510 1507 1504 1500 1497 1494 1491 1489 1487 1485 1483 1481 1479 1477 1474 1471 1468 1465 1462 1459 1456 1453 1450 1447 1446 1444 1441 1439 1437 1434 1432 1430 1428 1426 1424 1422 1420 1419 1417 1416 1414 1413 1412 1410
1543 1541 1543 1541 1540 1541 1539 1536 1533 1531 1531 1529 1530 1530 1529 1529 1527 1524 1522 1523 1522 1513 1507 1510 1512 1511 1509 1507 1512 1518 1518 1517 1517 1518 1518 1518 1517 1516 1515 1514 1512 1510 1507 1503 1499 1496 1493 1491 1489 1487 1485 1483 1481 1479 1477 1474 1471 1468 1465 1462 1459 1456 1453 1450 1447 1444 1442 1440 1438 1435 1432 1430 1428 1426 1424 1422 1420 1418 1416 1415 1413 1412 1410 1408 1407 1406
1547 1541 1542 1541 1539 1540 1540 1538 1536 1532 1532 1533 1532 1532 1536 1541 1543 1538 1534 1532 1524 1512 1505 1507 1513 1512 1506 1506 1513 1514 1515 1515 1515 1516 1517 1516 1516 1514 1512 1511 1509 1507 1503 1500 1498 1496 1494 1492 1489 1486 1484 1481 1479 1477 1474 1471 1468 1465 1462 1459 1456 1453 1450 1447 1444 1441 1438 1435 1433 1431 1428 1425 1423 1421 1419 1417 1415 1414 1412 1411 1409 1408 1406 1404 1403 1401
1558 1547 1542 1542 1542 1542 1541 1540 1539 1536 1534 1535 1534 1534 1536 1539 1545 1543 1535 1532 1524 1513 1509 1510 1512 1508 1501 1505 1511 1511 1512 1514 1514 1515 1515 1514 1513 1512 1511 1508 1506 1502 1500 1499 1498 1496 1494 1491 1488 1485 1482 1480 1477 1474 1472 1469 1466 1462 1459 1456 1453 1450 1446 1443 1440 1437 1433 1430 1428 1426 1423 1421 1419 1416 1414 1413 1411 1410 1408 1406 1404 1403 1402 1400 1398 1397
1565 1553 1544 1543 1544 1544 1542 1540 1539 1537 1535 1535 1535 1536 1534 1534 1538 1536 1528 1527 1526 1521 1520 1516 1507 1500 1500 1506 1509 1510 1511 1511 1512 1511 1511 1510 1509 1508 1506 1503 1501 1499 1498 1497 1495 1493 1490 1488 1485 1483 1480 1477 1474 1471 1468 1465 1462 1459 1455 1452 1449 1446 1442 1439 1436 1432 1429 1425 1423 1420 1417 1416 1414 1412 1410 1408 1407 1405 1403 1401 1399 1398 1397 1396 1394 1392
1568 1554 1543 1544 1543 1541 1542 1539 1538 1539 1536 1535 1536 1534 1531 1531 1533 1533 1527 1525 1529 1527 1519 1510 1503 1499 1504 1508 1507 1508 1508 1506 1507 1508 1507 1508 1506 1504 1502 1500 1499 1497 1495 1494 1492 1490 1487 1485 1482 1480 1477 1475 1471 1468 1465 1462 1459 1456 1452 1448 1445 1441 1438 1434 1431 1427 1424 1421 1418 1416 1413 1412 1410 1408 1406 1404 1402 1400 1398 1396 1395 1393 1392 1390 1389 1386
1575 1558 1544 1546 1543 1539 1541 1538 1536 1537 1536 1536 1537 1533 1529 1529 1531 1534 1533 1529 1531 1529 1514 1505 1505 1504 1505 1505 1504 1505 1506 1506 1507 1507 1507 1506 1504 1502 1500 1499 1498 1496 1494 1492 1490 1488 1485 1482 1480 1477 1475 1472 1468 1465 1461 1458 1455 1452 1449 1445 1441 1437 1433 1429 1426 1423 1420 1417 1414 1412 1410 1408 1405 1403 1401 1399 1397 1395 1393 1391 1390 1388 1386 1385 1383 1380
1579 1564 1546 1546 1546 1540 1539 1539 1535 1535 1534 1535 1535 1533 1534 1536 1533 1535 1538 1533 1532 1530 1515 1502 1502 1503 1502 1502 1505 1507 1509 1510 1509 1507 1506 1504 1501 1501 1500 1498 1497 1494 1492 1490 1487 1485 1482 1479 1477 1474 1470 1467 1464 1461 1458 1454 1451 1448 1445 1441 1437 1433 1429 1425 1422 1420 1417 1414 1411 1408 1406 1404 1401 1399 1397 1394 1392 1390 1388 1386 1384 1383 1381 1379 1377 1374
1578 1571 1553 1545 1547 1544 1539 1539 1538 1536 1535 1534 1534 1534 1536 1538 1534 1533 1534 1531 1530 1531 1521 1506 1500 1500 1501 1503 1508 1511 1511 1511 1510 1507 1505 1502 1501 1501 1498 1496 1494 1491 1489 1486 1483 1481 1478 1476 1473 1470 1467 1463 1460 1457 1453 1450 1447 1443 1440 1436 1433 1429 1424 1421 1418 1415 1412 1409 1406 1404 1401 1399 1396 1394 1392 1389 1387 1384 1382 1381 1379 1377 1375 1373 1371 1369
1576 1576 1561 1545 1545 1547 1543 1541 1539 1537 1537 1536 1537 1538 1538 1536 1534 1534 1531 1527 1532 1533 1527 1518 1506 1498 1501 1506 1508 1510 1509 1509 1508 1505 1503 1501 1500 1499 1497 1494 1491 1488 1485 1482 1480 1477 1474 1472 1469 1466 1463 1459 1456 1453 1449 1447 1443 1439 1436 1432 1428 1424 1419 1415 1412 1409 1407 1403 1401 1398 1395 1393 1391 1389 1386 1383 1381 1379 1377 1375 1374 1372 1371 1368 1366 1365
1577 1577 1569 1557 1554 1550 1542 1539 1538 1538 1538 1538 1539 1539 1539 1538 1538 1539 1533 1526 1528 1529 1525 1525 1513 1498 1500 1506 1506 1506 1506 1505 1504 1501 1499 1499 1497 1496 1493 1492 1489 1485 1482 1478 1476 1473 1470 1468 1464 1461 1459 1455 1452 1449 1446 1443 1439 1435 1431 1427 1423 1419 1415 1411 1407 1404 1401 1398 1395 1393 1390 1388 1385 1383 1381 1378 1376 1374 1372 1370 1369 1367 1366 1364 1363 1362
1578 1578 1574 1566 1556 1547 1540 1538 1538 1539 1538 1537 1538 1537 1538 1539 1538 1542 1540 1530 1526 1524 1520 1522 1515 1500 1500 1503 1502 1503 1503 1501 1501 1500 1498 1496 1495 1493 1490 1488 1485 1481 1478 1475 1472 1469 1466 1464 1460 1457 1454 1451 1448 1445 1442 1439 1435 1431 1427 1422 1418 1414 1409 1406 1402 1399 1396 1392 1390 1387 1385 1382 1380 1377 1375 1373 1371 1369 1368 1366 1365 1363 1362 1360 1359 1358
1577 1577 1573 1561 1549 1539 1535 1536 1538 1539 1538 1537 1537 1537 1539 1539 1537 1538 1538 1532 1530 1525 1518 1518 1511 1499 1497 1499 1498 1500 1500 1500 1500 1499 1497 1495 1492 1490 1487 1484 1480 1477 1474 1471 1468 1465 1463 1460 1456 1453 1449 1446 1443 1440 1437 1434 1430 1427 1423 1419 1414 1409 1404 1401 1397 1393 1390 1387 1385 1382 1379 1378 1375 1373 1370 1368 1367 1366 1364 1363 1361 1360 1359 1357 1356 1355
1575 1574 1573 1567 1558 1546 1538 1538 1537 1536 1538 1540 1538 1537 1538 1538 1537 1536 1534 1534 1534 1524 1517 1520 1509 1493 1493 1497 1497 1498 1499 1500 1500 1498 1496 1493 1489 1486 1483 1479 1476 1473 1469 1467 1464 1461 1458 1455 1452 1449 1446 1442 1439 1436 1432 1429 1426 1422 1418 1413 1409 1405 1400 1396 1392 1389 1386 1383 1380 1378 1375 1373 1371 1368 1366 1365 1363 1362 1360 1359 1357 1356 1355 1354 1353 1351
1576 1575 1575 1573 1572 1566 1557 1551 1544 1539 1539 1540 1538 1538 1538 1538 1539 1537 1536 1538 1533 1521 1519 1522 1509 1492 1493 1497 1496 1497 1498 1498 1497 1496 1493 1490 1487 1483 1480 1476 1472 1469 1466 1463 1460 1457 1454 1452 1449 1445 1442 1439 1436 1432 1428 1424 1420 1417 1413 1409 1405 1401 1396 1392 1389 1386 1383 1380 1377 1374 1371 1369 1367 1365 1363 1361 1359 1357 1356 1354 1353 1352 1351 1350 1349 1348
1578 1577 1574 1571 1570 1567 1561 1554 1549 1547 1547 1543 1538 1538 1537 1537 1538 1538 1538 1535 1528 1523 1522 1519 1511 1503 1499 1498 1497 1497 1497 1496 1493 1491 1489 1487 1484 1481 1477 1474 1469 1466 1463 1460 1457 1454 1450 1447 1444 1442 1439 1435 1432 1428 1425 1421 1417 1412 1408 1405 1401 1397 1392 1389 1386 1383 1380 1377 1374 1371 1368 1366 1363 1361 1359 1357 1355 1353 1351 1350 1349 1349 1348 1346 1345 1344
1579 1574 1571 1570 1566 1561 1558 1554 1550 1552 1551 1545 1540 1538 1536 1535 1536 1538 1537 1530 1528 1531 1523 1511 1513 1512 1502 1497 1499 1499 1498 1496 1491 1488 1486 1484 1481 1478 1475 1471 1466 1463 1460 1456 1453 1450 1446 1443 1440 1437 1434 1431 1428 1424 1421 1417 1414 1410 1405 1401 1397 1393 1389 1386 1383 1380 1377 1374 1371 1368 1366 1363 1360 1358 1356 1354 1351 1349 1347 1346 1346 1345 1343 1342 1340 1339
1579 1575 1571 1571 1566 1561 1559 1555 1551 1550 1549 1543 1540 1538 1536 1535 1535 1538 1538 1533 1535 1539 1527 1513 1514 1512 1502 1498 1501 1501 1499 1495 1491 1488 1485 1482 1479 1475 1470 1466 1463 1459 1456 1453 1450 1447 1443 1440 1436 1433 1430 1427 1424 1420 1417 1413 1409 1406 1402 1398 1393 1389 1386 1383 1380 1377 1374 1371 1368 1365 1363 1360 1358 1355 1353 1351 1349 1347 1345 1343 1343 1341 1339 1338 1337 1335
1579 1573 1571 1572 1567 1559 1556 1553 1549 1548 1545 1540 1538 1537 1536 1536 1537 1539 1541 1538 1537 1535 1527 1518 1513 1508 1503 1502 1501 1500 1498 1495 1490 1487 1484 1480 1476 1471 1466 1462 1459 1456 1453 1449 1446 1443 1440 1437 1433 1430 1426 1422 1419 1416 1413 1409 1405 1401 1398 1394 1389 1386 1383 1380 1377 1374 1371 1368 1365 1363 1360 1357 1355 1352 1350 1348 1346 1344 1342 1340 1339 1337 1335 1334 1332 1331
1577 1573 1573 1574 1568 1557 1550 1547 1546 1546 1545 1542 1538 1536 1538 1540 1540 1541 1541 1537 1534 1528 1521 1516 1511 1505 1504 1504 1501 1499 1496 1493 1488 1484 1480 1477 1473 1468 1463 1459 1456 1453 1449 1446 1442 1439 1436 1433 1430 1427 1423 1419 1416 1413 1410 1406 1402 1398 1394 1390 1386 1383 1380 1377 1374 1371 1369 1366 1363 1360 1357 1355 1352 1350 1348 1345 1343 1340 1339 1337 1336 1333 1331 1330 1328 1326
1578 1576 1574 1575 1571 1556 1546 1544 1544 1544 1543 1540 1539 1541 1543 1543 1542 1541 1539 1535 1531 1524 1516 1512 1511 1506 1503 1502 1499 1496 1494 1491 1486 1482 1478 1473 1469 1465 1460 1456 1453 1449 1445 1442 1439 1436 1433 1430 1427 1423 1420 1417 1414 1410 1406 1402 1398 1394 1390 1387 1383 1380 1378 1375 1372 1369 1366 1363 1360 1358 1355 1353 1350 1348 1345 1342 1340 1338 1336 1334 1332 1329 1327 1325 1323 1321
1581 1579 1575 1577 1573 1554 1544 1547 1548 1545 1541 1538 1543 1547 1545 1541 1539 1537 1534 1531 1529 1524 1518 1515 1513 1508 1503 1500 1496 1493 1491 1488 1484 1480 1476 1470 1465 1462 1459 1455 1451 1447 1443 1440 1436 1433 1431 1427 1424 1421 1418 1415 1411 1407 1403 1399 1395 1391 1388 1384 1381 1378 1375 1372 1369 1366 1363 1361 1359 1356 1353 1351 1348 1345 1342 1340 1337 1335 1333 1331 1328 1325 1323 1321 1319 1317
1583 1581 1579 1580 1574 1558 1550 1551 1549 1546 1544 1542 1544 1546 1543 1540 1538 1534 1531 1528 1525 1522 1520 1517 1514 1509 1505 1501 1496 1492 1489 1485 1482 1479 1475 1469 1464 1460 1457 1454 1449 1445 1442 1439 1435 1432 1428 1425 1423 1419 1416 1412 1408 1405 1401 1397 1393 1389 1385 1381 1378 1375 1373 1369 1367 1364 1361 1359 1357 1354 1351 1348 1345 1343 1340 1337 1335 1332 1330 1327 1324 1322 1319 1317 1315 1314
1581 1581 1580 1580 1576 1564 1554 1555 1557 1553 1545 1542 1543 1542 1541 1541 1538 1533 1529 1526 1522 1520 1520 1519 1515 1510 1506 1502 1497 1492 1487 1483 1479 1475 1472 1469 1465 1461 1455 1451 1448 1444 1441 1437 1434 1430 1427 1423 1420 1416 1413 1409 1405 1401 1397 1393 1390 1387 1382 1379 1376 1373 1370 1367 1365 1362 1360 1357 1354 1351 1349 1346 1343 1341 1338 1335 1332 1329 1327 1324 1321 1319 1317 1315 1313 1312
1581 1582 1581 1579 1576 1565 1555 1561 1568 1554 1537 1537 1543 1542 1541 1539 1535 1531 1526 1522 1522 1522 1520 1518 1514 1509 1505 1501 1495 1490 1484 1480 1476 1472 1470 1467 1465 1461 1456 1450 1447 1444 1440 1437 1433 1429 1425 1422 1418 1414 1410 1406 1402 1398 1394 1391 1388 1384 1380 1377 1374 1371 1369 1366 1363 1361 1358 1355 1352 1349 1347 1344 1341 1338 1335 1332 1329 1326 1324 1321 1319 1316 1315 1313 1311 1310
1581 1581 1581 1579 1576 1570 1565 1565 1561 1546 1536 1542 1546 1544 1542 1539 1535 1533 1527 1521 1521 1523 1521 1517 1512 1507 1503 1498 1492 1486 1480 1474 1470 1468 1467 1465 1462 1459 1456 1451 1447 1444 1441 1437 1433 1429 1425 1420 1416 1412 1408 1403 1400 1396 1392 1389 1386 1382 1378 1375 1373 1370 1367 1365 1362 1359 1356 1353 1350 1347 1345 1342 1339 1335 1332 1329 1326 1324 1322 1319 1317 1315 1313 1311 1309 1308
1581 1580 1582 1582 1577 1573 1573 1569 1560 1550 1546 1547 1548 1545 1544 1542 1538 1536 1530 1523 1521 1522 1521 1517 1511 1505 1500 1494 1489 1483 1476 1470 1465 1463 1462 1462 1458 1456 1453 1450 1447 1443 1439 1435 1431 1427 1423 1419 1415 1411 1406 1401 1398 1394 1391 1388 1384 1380 1377 1374 1371 1369 1366 1363 1361 1357 1354 1351 1348 1345 1342 1339 1336 1333 1330 1327 1325 1322 1320 1318 1316 1314 1312 1310 1308 1308
1580 1581 1582 1583 1578 1576 1578 1577 1573 1564 1552 1547 1548 1544 1541 1541 1538 1533 1531 1526 1522 1522 1521 1516 1510 1505 1499 1493 1487 1482 1476 1470 1464 1461 1460 1459 1456 1454 1451 1448 1444 1441 1437 1434 1430 1425 1421 1417 1413 1409 1404 1400 1397 1393 1390 1386 1383 1379 1376 1373 1371 1368 1365 1362 1359 1356 1353 1350 1347 1343 1340 1337 1335 1332 1329 1326 1323 1321 1319 1317 1315 1313 1311 1309 1308 1307
1579 1580 1581 1581 1578 1577 1579 1578 1573 1566 1555 1550 1549 1545 1541 1540 1535 1535 1536 1528 1519 1520 1520 1515 1509 1505 1499 1494 1488 1483 1481 1476 1469 1464 1462 1460 1456 1454 1451 1446 1443 1439 1435 1432 1428 1424 1420 1415 1411 1407 1403 1400 1396 1393 1389 1386 1382 1379 1376 1373 1370 1367 1364 1361 1358 1355 1352 1348 1345 1342 1339 1336 1333 1330 1328 1325 1322 1320 1318 1315 1313 1311 1310 1309 1307 1306
1578 1580 1583 1583 1579 1578 1579 1576 1569 1561 1555 1552 1550 1546 1542 1537 1536 1542 1544 1531 1520 1520 1520 1515 1510 1505 1500 1496 1491 1487 1486 1484 1477 1470 1466 1461 1456 1453 1450 1446 1443 1439 1435 1431 1427 1422 1418 1414 1410 1407 1404 1400 1396 1393 1389 1386 1383 1380 1376 1373 1370 1367 1364 1360 1357 1354 1350 1347 1344 1340 1337 1334 1332 1329 1327 1324 1321 1318 1316 1314 1312 1311 1310 1308 1307 1306
1582 1584 1584 1584 1582 1577 1574 1572 1568 1559 1552 1551 1551 1548 1545 1543 1545 1546 1542 1534 1528 1523 1518 1515 1511 1506 1501 1499 1496 1492 1487 1483 1478 1472 1467 1462 1457 1453 1449 1445 1441 1437 1433 1429 1425 1421 1417 1413 1410 1407 1404 1400 1396 1393 1389 1386 1383 1380 1376 1373 1370 1367 1363 1359 1356 1353 1349 1346 1342 1339 1336 1333 1331 1328 1325 1323 1320 1317 1316 1314 1313 1312 1310 1309 1308 1307
1588 1587 1584 1582 1582 1577 1573 1577 1577 1564 1551 1550 1551 1549 1549 1553 1554 1547 1539 1536 1532 1524 1518 1515 1512 1508 1504 1499 1495 1492 1486 1480 1477 1472 1467 1464 1459 1454 1449 1445 1441 1436 1432 1428 1424 1421 1417 1413 1409 1406 1403 1400 1396 1393 1389 1386 1383 1380 1376 1373 1370 1366 1362 1359 1355 1351 1348 1345 1341 1338 1335 1332 1330 1327 1325 1322 1320 1318 1316 1315 1313 1312 1311 1309 1308 1307
1590 1590 1588 1586 1586 1584 1583 1584 1579 1566 1557 1558 1559 1557 1556 1557 1555 1549 1541 1535 1531 1526 1521 1516 1511 1509 1506 1499 1494 1490 1484 1480 1476 1471 1466 1462 1458 1454 1450 1446 1441 1436 1432 1428 1425 1421 1417 1413 1409 1406 1403 1400 1396 1393 1390 1386 1383 1379 1376 1372 1369 1365 1361 1358 1354 1350 1347 1344 1340 1337 1335 1332 1329 1327 1324 1322 1320 1318 1317 1315 1313 1312 1311 1309 1308 1306
1590 1589 1590 1589 1587 1587 1584 1577 1570 1566 1565 1566 1565 1562 1560 1557 1553 1549 1543 1537 1532 1528 1524 1518 1513 1509 1504 1499 1494 1489 1484 1480 1476 1471 1467 1462 1458 1454 1450 1446 1442 1438 1433 1429 1426 1421 1417 1414 1410 1406 1403 1399 1396 1393 1390 1387 1383 1379 1375 1371 1368 1364 1360 1356 1353 1349 1346 1343 1340 1337 1334 1332 1329 1327 1324 1322 1320 1318 1316 1314 1313 1312 1310 1308 1307 1306
1590 1589 1589 1587 1584 1582 1577 1571 1569 1569 1566 1564 1563 1561 1559 1555 1551 1547 1543 1539 1535 1530 1525 1520 1515 1509 1504 1500 1495 1489 1485 1481 1476 1472 1467 1463 1458 1454 1450 1446 1442 1438 1434 1430 1426 1421 1417 1414 1410 1406 1403 1399 1396 1392 1389 1386 1383 1379 1375 1371 1367 1363 1360 1356 1352 1349 1346 1343 1339 1337 1334 1331 1328 1326 1324 1323 1321 1318 1316 1314 1313 1311 1309 1308 1306 1305
1590 1588 1587 1585 1583 1582 1578 1572 1570 1569 1565 1562 1561 1558 1555 1553 1550 1546 1543 1539 1535 1531 1526 1520 1514 1509 1504 1499 1494 1490 1486 1481 1476 1471 1467 1462 1458 1454 1450 1446 1442 1438 1435 1431 1426 1422 1418 1414 1410 1407 1403 1399 1395 1392 1389 1385 1382 1379 1375 1371 1367 1363 1359 1355 1352 1348 1345 1342 1339 1336 1334 1331 1328 1326 1324 1323 1321 1319 1317 1315 1313 1311 1309 1307 1305 1304
1591 1588 1588 1586 1584 1583 1578 1572 1569 1568 1566 1564 1561 1557 1554 1551 1548 1545 1542 1538 1534 1529 1524 1519 1513 1508 1502 1497 1494 1491 1486 1481 1476 1471 1466 1462 1458 1453 1450 1446 1442 1439 1435 1431 1426 1422 1418 1415 1411 1407 1403 1400 1396 1392 1389 1385 1381 1378 1374 1370 1366 1362 1358 1354 1351 1348 1345 1342 1339 1337 1334 1331 1329 1327 1325 1323 1321 1319 1317 1315 1313 1312 1310 1308 1306 1304
1592 1590 1589 1587 1583 1579 1574 1570 1567 1562 1559 1559 1560 1558 1555 1551 1547 1543 1540 1535 1529 1524 1519 1515 1512 1508 1503 1499 1495 1490 1485 1481 1477 1471 1467 1462 1458 1454 1450 1446 1442 1439 1435 1431 1427 1423 1419 1416 1412 1408 1404 1400 1396 1392 1388 1384 1381 1377 1373 1369 1366 1362 1358 1354 1351 1348 1345 1342 1339 1337 1334 1332 1330 1328 1326 1324 1322 1320 1318 1316 1314 1312 1311 1309 1308 1306
1592 1591 1590 1588 1585 1581 1576 1573 1571 1566 1559 1557 1559 1558 1555 1551 1547 1542 1537 1532 1527 1522 1517 1513 1509 1506 1502 1499 1495 1490 1485 1480 1476 1472 1467 1463 1458 1455 1451 1446 1442 1439 1435 1431 1427 1424 1420 1416 1412 1408 1404 1400 1396 1392 1388 1384 1380 1376 1373 1369 1365 1362 1358 1354 1350 1348 1345 1342 1339 1337 1334 1332 1330 1328 1326 1324 1322 1321 1319 1317 1315 1313 1311 1309 1308 1307
1593 1592 1591 1591 1589 1584 1579 1576 1576 1573 1567 1561 1559 1556 1554 1549 1544 1540 1535 1531 1527 1523 1519 1514 1509 1504 1500 1498 1495 1491 1485 1480 1476 1471 1467 1463 1460 1456 1451 1447 1443 1439 1435 1431 1427 1423 1419 1415 1411 1407 1404 1400 1396 1392 1388 1384 1380 1376 1372 1369 1365 1362 1359 1355 1351 1348 1345 1342 1340 1337 1335 1333 1331 1329 1327 1325 1323 1320 1318 1317 1316 1314 1312 1311 1309 1308